AUA29V EBBR-LOWW

Flight info

Callsign AUA29V
Flight time 1h 12m
Altitude 35000
Route SOPOK4T SOPOK Y863 ROPUV L607 EMGOD DCT BOMBI DCT BARSU DCT EKSOS DCT LULAR DCT RUDAP DCT BUDEX BUDEX2W
Aircraft A320/M-SDE2E3FGIJ1RWXY/LB1

Departure

Time 2026-05-07 19:39
Airport Brussels Airport (EBBR)

Arrival

Time 2026-05-07 20:52
Airport Vienna International Airport (LOWW)
Time Latitude Longitude Altitude Speed Heading
2026-05-07 19:06 50.90492 4.48901 121 ft 0 kts 155°
2026-05-07 19:25 50.90508 4.48889 117 ft 4 kts 155°
2026-05-07 19:25 50.90533 4.48871 116 ft 4 kts 152°
2026-05-07 19:25 50.90556 4.48849 116 ft 4 kts 139°
2026-05-07 19:25 50.90570 4.48821 119 ft 4 kts 84°
2026-05-07 19:26 50.90569 4.48812 118 ft 0 kts 65°
2026-05-07 19:28 50.90570 4.48815 118 ft 2 kts 65°
2026-05-07 19:28 50.90584 4.48865 117 ft 11 kts 66°
2026-05-07 19:28 50.90630 4.49025 118 ft 16 kts 65°
2026-05-07 19:28 50.90719 4.49104 121 ft 15 kts 28°
2026-05-07 19:29 50.90775 4.49253 119 ft 20 kts 65°
2026-05-07 19:29 50.90817 4.49396 120 ft 5 kts 65°
2026-05-07 19:29 50.90821 4.49411 121 ft 0 kts 66°
2026-05-07 19:29 50.90825 4.49426 123 ft 0 kts 65°
2026-05-07 19:30 50.90838 4.49473 123 ft 10 kts 66°
2026-05-07 19:30 50.90863 4.49559 122 ft 0 kts 65°
2026-05-07 19:30 50.90864 4.49560 122 ft 1 kts 65°
2026-05-07 19:31 50.90892 4.49658 119 ft 18 kts 65°
2026-05-07 19:31 50.90943 4.49812 120 ft 14 kts 45°
2026-05-07 19:31 50.90980 4.49861 122 ft 0 kts 39°
2026-05-07 19:33 50.90982 4.49864 122 ft 3 kts 39°
2026-05-07 19:33 50.91029 4.49906 119 ft 4 kts 25°
2026-05-07 19:33 50.91031 4.49907 119 ft 0 kts 24°
2026-05-07 19:37 50.91058 4.49926 116 ft 12 kts 24°
2026-05-07 19:38 50.91133 4.49927 119 ft 6 kts 336°
2026-05-07 19:38 50.91139 4.49886 118 ft 6 kts 249°
2026-05-07 19:38 50.91133 4.49865 118 ft 0 kts 246°
2026-05-07 19:38 50.91098 4.49743 118 ft 42 kts 245°
2026-05-07 19:39 50.90863 4.48929 119 ft 117 kts 245°
2026-05-07 19:39 50.90440 4.47464 202 ft 165 kts 246°
2026-05-07 19:39 50.89972 4.45843 998 ft 160 kts 246°
2026-05-07 19:39 50.89674 4.44786 1508 ft 158 kts 246°
2026-05-07 19:40 50.88821 4.42938 2387 ft 159 kts 206°
2026-05-07 19:40 50.87770 4.42526 2991 ft 157 kts 174°
2026-05-07 19:40 50.86746 4.43060 3540 ft 160 kts 143°
2026-05-07 19:40 50.85921 4.44400 3867 ft 180 kts 130°
2026-05-07 19:41 50.85063 4.45974 4258 ft 200 kts 130°
2026-05-07 19:41 50.84100 4.47731 4654 ft 223 kts 130°
2026-05-07 19:41 50.83019 4.49690 5058 ft 250 kts 130°
2026-05-07 19:41 50.81810 4.51868 5449 ft 277 kts 131°
2026-05-07 19:42 50.80479 4.54258 5850 ft 302 kts 131°
2026-05-07 19:42 50.79029 4.56856 6159 ft 329 kts 131°
2026-05-07 19:42 50.77454 4.59672 6298 ft 355 kts 131°
2026-05-07 19:42 50.75780 4.62666 6802 ft 367 kts 131°
2026-05-07 19:43 50.74082 4.65705 7495 ft 372 kts 131°
2026-05-07 19:43 50.72360 4.68794 8204 ft 377 kts 131°
2026-05-07 19:43 50.70622 4.71931 8918 ft 382 kts 130°
2026-05-07 19:43 50.69182 4.75490 9610 ft 389 kts 114°
2026-05-07 19:44 50.68290 4.79544 10299 ft 394 kts 108°
2026-05-07 19:44 50.67462 4.83686 10954 ft 398 kts 108°
2026-05-07 19:44 50.66638 4.87874 11598 ft 403 kts 108°
2026-05-07 19:44 50.65807 4.92120 12254 ft 407 kts 108°
2026-05-07 19:45 50.64969 4.96403 12911 ft 411 kts 108°
2026-05-07 19:45 50.64123 5.00722 13560 ft 415 kts 108°
2026-05-07 19:45 50.63270 5.05072 14242 ft 416 kts 108°
2026-05-07 19:45 50.62704 5.07950 14718 ft 415 kts 108°
2026-05-07 19:46 50.61847 5.12286 15464 ft 415 kts 108°
2026-05-07 19:46 50.60985 5.16609 16213 ft 414 kts 108°
2026-05-07 19:46 50.60121 5.20930 17002 ft 413 kts 108°
2026-05-07 19:46 50.59251 5.25274 17368 ft 424 kts 108°
2026-05-07 19:47 50.58169 5.29652 17513 ft 436 kts 114°
2026-05-07 19:47 50.57133 5.34183 17841 ft 443 kts 106°
2026-05-07 19:47 50.56484 5.38952 18257 ft 447 kts 102°
2026-05-07 19:47 50.55849 5.43754 18648 ft 450 kts 102°
2026-05-07 19:48 50.55196 5.48578 19020 ft 453 kts 103°
2026-05-07 19:48 50.54532 5.53438 19392 ft 455 kts 103°
2026-05-07 19:48 50.53865 5.58319 19742 ft 458 kts 103°
2026-05-07 19:48 50.53195 5.63221 20085 ft 460 kts 103°
2026-05-07 19:49 50.52521 5.68151 20418 ft 462 kts 103°
2026-05-07 19:49 50.51847 5.73099 20738 ft 465 kts 103°
2026-05-07 19:49 50.51171 5.78079 21059 ft 467 kts 103°
2026-05-07 19:49 50.50491 5.83077 21366 ft 469 kts 103°
2026-05-07 19:50 50.49807 5.88090 21658 ft 471 kts 103°
2026-05-07 19:50 50.49114 5.93137 21945 ft 473 kts 103°
2026-05-07 19:50 50.48418 5.98187 22227 ft 475 kts 103°
2026-05-07 19:50 50.47715 6.03267 22608 ft 475 kts 103°
2026-05-07 19:51 50.47013 6.08322 22961 ft 475 kts 103°
2026-05-07 19:51 50.46309 6.13386 23326 ft 475 kts 103°
2026-05-07 19:51 50.45604 6.18448 23687 ft 475 kts 103°
2026-05-07 19:51 50.44894 6.23514 23993 ft 475 kts 103°
2026-05-07 19:52 50.44177 6.28576 24302 ft 475 kts 103°
2026-05-07 19:52 50.43456 6.33640 24614 ft 475 kts 103°
2026-05-07 19:52 50.42734 6.38701 24927 ft 475 kts 103°
2026-05-07 19:52 50.42015 6.43755 25244 ft 475 kts 103°
2026-05-07 19:53 50.41295 6.48813 25554 ft 475 kts 103°
2026-05-07 19:53 50.40571 6.53871 25879 ft 475 kts 103°
2026-05-07 19:53 50.39848 6.58915 26181 ft 476 kts 103°
2026-05-07 19:53 50.39117 6.63987 26313 ft 479 kts 103°
2026-05-07 19:54 50.38376 6.69105 26439 ft 482 kts 103°
2026-05-07 19:54 50.37628 6.74233 26572 ft 484 kts 103°
2026-05-07 19:54 50.36876 6.79377 26701 ft 486 kts 103°
2026-05-07 19:54 50.36121 6.84541 26831 ft 487 kts 103°
2026-05-07 19:55 50.35364 6.89707 26958 ft 487 kts 103°
2026-05-07 19:55 50.34600 6.94889 27090 ft 488 kts 104°
2026-05-07 19:55 50.33838 7.00063 27239 ft 488 kts 104°
2026-05-07 19:55 50.33076 7.05233 27402 ft 488 kts 104°
2026-05-07 19:56 50.32313 7.10395 27561 ft 487 kts 104°
2026-05-07 19:56 50.31547 7.15560 27734 ft 487 kts 104°
2026-05-07 19:56 50.30781 7.20707 27912 ft 486 kts 104°
2026-05-07 19:56 50.30008 7.25864 28090 ft 486 kts 104°
2026-05-07 19:57 50.29234 7.31000 28271 ft 485 kts 104°
2026-05-07 19:57 50.28453 7.36134 28451 ft 485 kts 104°
2026-05-07 19:57 50.27670 7.41255 28648 ft 484 kts 104°
2026-05-07 19:57 50.26885 7.46370 28835 ft 484 kts 104°
2026-05-07 19:58 50.26101 7.51481 29028 ft 484 kts 104°
2026-05-07 19:58 50.25319 7.56591 29229 ft 483 kts 104°
2026-05-07 19:58 50.24539 7.61698 29426 ft 483 kts 104°
2026-05-07 19:58 50.23758 7.66786 29622 ft 482 kts 104°
2026-05-07 19:59 50.22975 7.71878 29828 ft 482 kts 104°
2026-05-07 19:59 50.22187 7.76967 30043 ft 481 kts 104°
2026-05-07 19:59 50.21394 7.82044 30236 ft 481 kts 104°
2026-05-07 19:59 50.20599 7.87110 30417 ft 480 kts 104°
2026-05-07 20:00 50.19805 7.92164 30596 ft 480 kts 104°
2026-05-07 20:00 50.19011 7.97226 30766 ft 480 kts 104°
2026-05-07 20:00 50.18214 8.02286 30941 ft 480 kts 104°
2026-05-07 20:00 50.17419 8.07334 31119 ft 479 kts 104°
2026-05-07 20:01 50.16622 8.12381 31299 ft 479 kts 104°
2026-05-07 20:01 50.15824 8.17415 31477 ft 479 kts 104°
2026-05-07 20:01 50.15022 8.22454 31658 ft 478 kts 104°
2026-05-07 20:01 50.14218 8.27485 31860 ft 478 kts 104°
2026-05-07 20:02 50.13412 8.32512 32024 ft 478 kts 104°
2026-05-07 20:02 50.12602 8.37536 32204 ft 479 kts 104°
2026-05-07 20:02 50.11789 8.42566 32378 ft 478 kts 104°
2026-05-07 20:02 50.10973 8.47589 32540 ft 479 kts 104°
2026-05-07 20:03 50.10156 8.52610 32696 ft 479 kts 104°
2026-05-07 20:03 50.09334 8.57651 32870 ft 479 kts 104°
2026-05-07 20:03 50.08515 8.62680 33048 ft 479 kts 104°
2026-05-07 20:03 50.07694 8.67703 33226 ft 479 kts 104°
2026-05-07 20:04 50.06870 8.72718 33414 ft 479 kts 104°
2026-05-07 20:04 50.06053 8.77729 33659 ft 477 kts 103°
2026-05-07 20:04 50.05453 8.82797 33942 ft 475 kts 97°
2026-05-07 20:04 50.05059 8.87892 34194 ft 474 kts 96°
2026-05-07 20:05 50.04664 8.92979 34429 ft 473 kts 97°
2026-05-07 20:05 50.04265 8.98052 34663 ft 472 kts 97°
2026-05-07 20:05 50.03859 9.03115 34900 ft 472 kts 97°
2026-05-07 20:05 50.03447 9.08173 35152 ft 471 kts 97°
2026-05-07 20:06 50.03034 9.13225 35377 ft 471 kts 97°
2026-05-07 20:06 50.02620 9.18269 35630 ft 470 kts 97°
2026-05-07 20:06 50.02209 9.23305 35875 ft 470 kts 97°
2026-05-07 20:06 50.01798 9.28343 36125 ft 469 kts 97°
2026-05-07 20:07 50.01387 9.33369 36374 ft 468 kts 97°
2026-05-07 20:07 50.00972 9.38380 36632 ft 468 kts 98°
2026-05-07 20:07 50.00554 9.43390 36890 ft 467 kts 98°
2026-05-07 20:07 50.00134 9.48399 37043 ft 469 kts 98°
2026-05-07 20:08 49.99280 9.58525 37079 ft 477 kts 98°
2026-05-07 20:08 49.98406 9.68808 37079 ft 481 kts 98°
2026-05-07 20:09 49.97520 9.79118 37079 ft 482 kts 98°
2026-05-07 20:10 49.96166 9.94578 37087 ft 482 kts 98°
2026-05-07 20:10 49.95253 10.04901 37090 ft 482 kts 98°
2026-05-07 20:11 49.94331 10.15222 37100 ft 483 kts 98°
2026-05-07 20:11 49.93399 10.25538 37100 ft 483 kts 98°
2026-05-07 20:12 49.92444 10.35856 37099 ft 482 kts 101°
2026-05-07 20:12 49.90422 10.45727 37102 ft 481 kts 113°
2026-05-07 20:13 49.87924 10.55345 37099 ft 481 kts 113°
2026-05-07 20:13 49.85436 10.64974 37093 ft 481 kts 113°
2026-05-07 20:14 49.82940 10.74586 37088 ft 481 kts 113°
2026-05-07 20:14 49.80427 10.84196 37094 ft 482 kts 113°
2026-05-07 20:15 49.77934 10.93823 37088 ft 482 kts 112°
2026-05-07 20:15 49.75681 11.03591 37095 ft 483 kts 110°
2026-05-07 20:16 49.73536 11.13427 37091 ft 483 kts 110°
2026-05-07 20:16 49.71352 11.23234 37090 ft 482 kts 110°
2026-05-07 20:17 49.69103 11.32979 37087 ft 482 kts 111°
2026-05-07 20:17 49.66832 11.42715 37079 ft 482 kts 111°
2026-05-07 20:18 49.64565 11.52455 37076 ft 482 kts 111°
2026-05-07 20:18 49.62301 11.62187 37070 ft 482 kts 111°
2026-05-07 20:19 49.60029 11.71891 37066 ft 481 kts 111°
2026-05-07 20:19 49.57748 11.81602 37042 ft 482 kts 111°
2026-05-07 20:20 49.55457 11.91310 37046 ft 482 kts 111°
2026-05-07 20:20 49.53152 12.01020 37051 ft 483 kts 111°
2026-05-07 20:21 49.50838 12.10713 37054 ft 483 kts 111°
2026-05-07 20:21 49.48507 12.20414 37064 ft 483 kts 112°
2026-05-07 20:22 49.46177 12.30106 37072 ft 483 kts 112°
2026-05-07 20:22 49.43840 12.39786 37075 ft 483 kts 112°
2026-05-07 20:23 49.41495 12.49473 37078 ft 484 kts 112°
2026-05-07 20:23 49.39145 12.59149 37061 ft 484 kts 112°
2026-05-07 20:24 49.36779 12.68815 37074 ft 484 kts 112°
2026-05-07 20:24 49.34401 12.78467 37081 ft 484 kts 112°
2026-05-07 20:25 49.32013 12.88133 37083 ft 484 kts 112°
2026-05-07 20:25 49.29620 12.97783 37082 ft 485 kts 112°
2026-05-07 20:26 49.27226 13.07424 37082 ft 484 kts 112°
2026-05-07 20:26 49.25220 13.15430 37082 ft 484 kts 112°
2026-05-07 20:27 49.22800 13.25043 37084 ft 484 kts 112°
2026-05-07 20:27 49.20381 13.34654 37084 ft 484 kts 112°
2026-05-07 20:28 49.17958 13.44243 37062 ft 484 kts 113°
2026-05-07 20:28 49.15526 13.53824 37071 ft 484 kts 113°
2026-05-07 20:29 49.13084 13.63398 37077 ft 483 kts 113°
2026-05-07 20:29 49.10632 13.72953 37072 ft 483 kts 113°
2026-05-07 20:30 49.08174 13.82491 37063 ft 483 kts 114°
2026-05-07 20:30 49.05700 13.92020 37065 ft 483 kts 114°
2026-05-07 20:31 49.03227 14.01541 37066 ft 483 kts 114°
2026-05-07 20:31 49.00754 14.11068 37070 ft 484 kts 114°
2026-05-07 20:32 48.98267 14.20580 37056 ft 484 kts 114°
2026-05-07 20:32 48.95763 14.30088 37059 ft 484 kts 114°
2026-05-07 20:33 48.92725 14.39149 37056 ft 480 kts 123°
2026-05-07 20:33 48.89373 14.47926 37056 ft 480 kts 123°
2026-05-07 20:33 48.87693 14.52323 36714 ft 480 kts 123°
2026-05-07 20:34 48.86020 14.56698 35935 ft 479 kts 123°
2026-05-07 20:34 48.84345 14.61073 35116 ft 479 kts 123°
2026-05-07 20:34 48.82669 14.65440 34307 ft 478 kts 123°
2026-05-07 20:34 48.80993 14.69799 33363 ft 479 kts 123°
2026-05-07 20:35 48.79313 14.74155 32338 ft 479 kts 123°
2026-05-07 20:35 48.77625 14.78522 31304 ft 480 kts 123°
2026-05-07 20:35 48.75933 14.82893 30277 ft 481 kts 123°
2026-05-07 20:35 48.74237 14.87254 29044 ft 481 kts 122°
2026-05-07 20:36 48.72533 14.91632 27709 ft 483 kts 122°
2026-05-07 20:36 48.71028 14.96193 26505 ft 488 kts 113°
2026-05-07 20:36 48.69802 15.01004 25896 ft 491 kts 113°
2026-05-07 20:36 48.68550 15.05817 25317 ft 493 kts 114°
2026-05-07 20:37 48.67277 15.10651 24750 ft 495 kts 114°
2026-05-07 20:37 48.66000 15.15483 24201 ft 494 kts 114°
2026-05-07 20:37 48.64725 15.20295 23652 ft 491 kts 114°
2026-05-07 20:37 48.63462 15.25070 23022 ft 487 kts 113°
2026-05-07 20:38 48.62211 15.29813 22392 ft 483 kts 113°
2026-05-07 20:38 48.60973 15.34514 21763 ft 479 kts 113°
2026-05-07 20:38 48.59748 15.39162 21166 ft 473 kts 114°
2026-05-07 20:38 48.58535 15.43750 20575 ft 468 kts 114°
2026-05-07 20:39 48.57330 15.48296 19985 ft 464 kts 114°
2026-05-07 20:39 48.56130 15.52805 19419 ft 461 kts 114°
2026-05-07 20:39 48.54938 15.57276 18869 ft 458 kts 113°
2026-05-07 20:39 48.53752 15.61722 18303 ft 455 kts 113°
2026-05-07 20:40 48.52573 15.66131 17688 ft 451 kts 113°
2026-05-07 20:40 48.51403 15.70498 17094 ft 448 kts 113°
2026-05-07 20:40 48.50241 15.74833 16512 ft 444 kts 113°
2026-05-07 20:40 48.49091 15.79118 15948 ft 438 kts 114°
2026-05-07 20:41 48.47953 15.83345 15392 ft 434 kts 114°
2026-05-07 20:41 48.46818 15.87546 14846 ft 431 kts 114°
2026-05-07 20:41 48.45690 15.91705 14311 ft 428 kts 114°
2026-05-07 20:41 48.44568 15.95836 13761 ft 425 kts 114°
2026-05-07 20:42 48.43455 15.99940 13145 ft 422 kts 114°
2026-05-07 20:42 48.42335 16.04063 12523 ft 418 kts 114°
2026-05-07 20:42 48.41254 16.08038 11947 ft 414 kts 114°
2026-05-07 20:42 48.40150 16.12091 11352 ft 411 kts 114°
2026-05-07 20:43 48.39088 16.15987 10779 ft 405 kts 113°
2026-05-07 20:43 48.38023 16.19883 10333 ft 400 kts 113°
2026-05-07 20:43 48.36970 16.23730 9893 ft 397 kts 113°
2026-05-07 20:43 48.35922 16.27562 9418 ft 395 kts 112°
2026-05-07 20:44 48.34862 16.31427 8939 ft 393 kts 112°
2026-05-07 20:44 48.33819 16.35215 8477 ft 392 kts 112°
2026-05-07 20:44 48.32774 16.38993 8032 ft 390 kts 112°
2026-05-07 20:44 48.31747 16.42686 7572 ft 387 kts 112°
2026-05-07 20:45 48.30712 16.46404 7127 ft 385 kts 112°
2026-05-07 20:45 48.29515 16.50047 6682 ft 383 kts 120°
2026-05-07 20:45 48.28058 16.53318 6238 ft 379 kts 127°
2026-05-07 20:45 48.26428 16.56388 5741 ft 375 kts 128°
2026-05-07 20:46 48.24807 16.59431 5247 ft 372 kts 128°
2026-05-07 20:46 48.23168 16.62507 4733 ft 372 kts 128°
2026-05-07 20:46 48.21578 16.65494 4227 ft 371 kts 129°
2026-05-07 20:46 48.19921 16.68461 3722 ft 371 kts 135°
2026-05-07 20:47 48.17997 16.71018 3229 ft 370 kts 140°
2026-05-07 20:47 48.16061 16.73486 2746 ft 352 kts 141°
2026-05-07 20:47 48.14301 16.75733 2580 ft 313 kts 143°
2026-05-07 20:47 48.12507 16.77156 2596 ft 277 kts 169°
2026-05-07 20:48 48.10734 16.77204 2597 ft 237 kts 198°
2026-05-07 20:48 48.09258 16.76508 2605 ft 212 kts 204°
2026-05-07 20:48 48.07959 16.75687 2573 ft 194 kts 220°
2026-05-07 20:48 48.07211 16.74183 2515 ft 178 kts 259°
2026-05-07 20:49 48.07105 16.72358 2448 ft 176 kts 273°
2026-05-07 20:49 48.07147 16.70539 2402 ft 175 kts 275°
2026-05-07 20:49 48.07267 16.68718 2268 ft 176 kts 290°
2026-05-07 20:49 48.07785 16.67166 2052 ft 158 kts 297°
2026-05-07 20:50 48.08234 16.65767 1874 ft 141 kts 296°
2026-05-07 20:50 48.08645 16.64494 1680 ft 132 kts 296°
2026-05-07 20:50 48.09041 16.63276 1491 ft 128 kts 296°
2026-05-07 20:50 48.09433 16.62078 1327 ft 130 kts 294°
2026-05-07 20:51 48.09830 16.60855 1139 ft 130 kts 293°
2026-05-07 20:51 48.10228 16.59644 947 ft 129 kts 292°
2026-05-07 20:51 48.10621 16.58444 784 ft 128 kts 291°
2026-05-07 20:51 48.11007 16.57259 630 ft 124 kts 289°
2026-05-07 20:52 48.11334 16.56243 619 ft 92 kts 296°
2026-05-07 20:52 48.11551 16.55583 620 ft 49 kts 296°
2026-05-07 20:52 48.11726 16.55252 620 ft 29 kts 315°
2026-05-07 20:52 48.11857 16.55146 617 ft 17 kts 12°
2026-05-07 20:53 48.11858 16.55280 621 ft 14 kts 114°
2026-05-07 20:53 48.11804 16.55448 611 ft 22 kts 116°
2026-05-07 20:53 48.11726 16.55687 616 ft 28 kts 115°
2026-05-07 20:53 48.11638 16.55957 614 ft 29 kts 116°
2026-05-07 20:54 48.11625 16.56200 621 ft 25 kts 49°
2026-05-07 20:54 48.11752 16.56340 613 ft 19 kts 69°
2026-05-07 20:54 48.11730 16.56450 621 ft 10 kts 110°
2026-05-07 20:54 48.11691 16.56574 613 ft 15 kts 116°
2026-05-07 20:55 48.11712 16.56659 611 ft 9 kts 26°
2026-05-07 20:55 48.11741 16.56679 611 ft 0 kts 25°